Total_Precipitation_Accumulation
1.84 1.99 1.96 2.17 2.16 2.23 2.44 2.79 2.85 3.03 3.09 3.05 2.73 2.38 2.23 2.08 1.91 2.06 2.19 2.08 1.99 2.20 2.66 3.06 2.97 2.74 2.48 2.45 2.24 1.86 1.63 1.52 1.35 1.07 0.97 1.04 1.03 0.95 0.86 0.81 0.76 0.71 0.59
2.40 2.62 2.64 2.67 2.46 2.43 2.70 2.96 3.08 3.59 3.54 3.39 2.91 2.62 2.36 2.25 2.07 2.01 2.21 2.35 2.03 1.99 2.32 2.97 3.28 3.06 2.83 2.80 2.53 2.08 1.79 1.63 1.51 1.14 0.92 0.94 1.00 1.00 0.94 0.89 0.79 0.67 0.55
2.79 2.96 2.92 2.83 2.78 2.76 2.95 3.14 3.32 3.49 3.32 3.20 3.03 2.80 2.56 2.33 2.04 2.02 2.07 2.28 2.16 2.00 2.19 2.54 2.95 3.03 3.06 3.06 2.79 2.39 1.94 1.67 1.46 1.20 0.92 0.86 0.90 0.92 0.91 0.91 0.84 0.66 0.48
2.94 3.26 3.08 2.92 3.20 3.05 3.21 3.62 3.63 3.64 3.60 3.40 3.20 2.93 2.69 2.45 1.99 1.87 1.85 2.13 2.45 2.12 2.22 2.48 2.62 2.70 3.10 3.23 3.07 2.86 2.44 1.95 1.53 1.28 1.06 1.00 1.00 0.97 0.94 0.86 0.84 0.66 0.45
2.85 3.14 3.04 3.08 3.14 3.40 3.45 3.22 3.73 3.80 3.70 3.52 2.98 2.78 2.43 2.21 2.00 1.79 1.86 1.88 2.17 2.09 2.15 2.24 2.40 2.54 3.01 3.50 3.59 3.47 3.17 2.70 2.11 1.75 1.67 1.58 1.52 1.34 1.13 0.96 0.82 0.69 0.49
2.72 3.11 2.94 2.92 3.02 3.34 3.34 3.34 3.68 3.67 3.42 3.42 2.79 2.49 2.29 1.91 1.89 1.91 1.70 1.72 1.82 1.61 1.83 2.11 2.54 2.20 2.32 2.66 3.16 3.51 3.62 3.53 3.07 2.90 2.91 2.65 2.41 1.97 1.44 1.14 0.92 0.79 0.63
2.60 3.00 2.75 3.03 2.96 3.06 3.10 3.12 3.37 3.46 3.15 3.19 3.19 2.73 2.12 1.71 1.66 1.64 1.65 1.71 1.60 1.66 2.07 2.44 2.60 2.55 2.26 2.00 2.12 2.65 3.39 3.81 3.53 3.24 3.33 3.37 3.27 2.67 1.89 1.44 1.12 0.90 0.76
2.44 2.60 2.80 2.67 2.70 2.87 2.90 2.93 3.19 3.15 2.77 2.85 3.11 3.14 2.51 2.17 1.70 1.28 1.56 1.63 1.60 1.82 1.95 2.04 2.38 2.66 2.56 2.64 2.07 1.89 2.54 3.30 3.58 3.39 3.23 3.40 3.43 2.83 2.15 1.84 1.47 1.13 0.96
2.27 2.34 2.50 2.51 2.51 2.42 2.64 2.82 2.76 2.77 2.63 2.54 2.70 3.08 2.81 2.40 1.96 1.44 1.28 1.34 1.56 1.79 1.81 1.94 1.96 2.15 2.22 2.61 2.59 2.09 1.91 2.19 2.89 3.54 3.57 3.41 3.24 2.75 2.33 2.13 1.89 1.50 1.27
2.06 2.06 2.11 2.13 2.18 2.19 2.46 2.25 2.26 2.50 2.62 2.49 2.51 2.50 2.51 2.57 2.46 1.87 1.40 1.29 1.49 1.64 1.64 1.56 1.69 1.91 1.96 2.17 2.32 2.09 1.81 1.68 2.02 2.77 3.32 3.39 3.13 2.63 2.35 2.34 2.46 2.23 1.74
1.93 1.82 1.93 1.96 1.96 1.97 2.07 2.09 2.33 2.33 2.40 2.38 2.38 2.36 2.45 2.49 2.35 2.17 1.82 1.64 1.57 1.38 1.38 1.44 1.56 1.77 1.90 2.01 2.22 2.03 1.99 1.71 1.72 1.92 2.37 2.79 2.92 2.80 2.50 2.50 2.86 2.99 2.63
1.75 1.74 1.80 1.89 1.85 1.84 1.97 2.03 2.07 2.09 2.16 2.23 2.19 2.17 2.36 2.27 2.20 2.29 1.99 1.83 1.76 1.47 1.44 1.46 1.46 1.58 1.66 1.75 1.63 1.73 1.72 1.52 1.45 1.42 1.47 1.80 2.17 2.37 2.45 2.60 2.95 3.22 3.23
1.51 1.51 1.62 1.72 1.67 1.67 1.79 1.89 1.90 2.00 2.07 2.09 2.04 2.06 2.12 2.06 2.07 2.20 2.25 2.05 1.90 1.60 1.58 1.50 1.40 1.52 1.48 1.69 1.63 1.46 1.25 1.17 1.05 1.02 1.06 1.20 1.40 1.63 1.85 2.15 2.58 2.93 3.12
1.38 1.45 1.53 1.53 1.53 1.55 1.57 1.86 1.90 1.95 2.02 1.99 1.87 2.15 2.08 1.85 1.92 2.07 2.28 2.48 2.34 1.96 1.88 1.70 1.48 1.41 1.48 1.55 1.47 1.29 1.02 0.94 0.86 0.82 0.80 0.86 1.00 1.13 1.29 1.47 1.77 2.02 2.26
1.59 1.61 1.58 1.58 1.60 1.67 1.79 2.01 2.07 2.04 2.06 2.02 2.07 2.21 2.06 1.85 1.84 1.88 2.20 2.50 2.68 2.38 2.08 1.84 1.67 1.41 1.42 1.33 1.31 1.19 1.16 0.99 0.79 0.75 0.72 0.67 0.72 0.83 0.95 1.06 1.19 1.34 1.46
1.79 1.76 1.73 1.68 1.64 1.71 1.90 2.06 2.08 2.04 2.09 2.12 2.16 2.28 2.27 2.10 2.08 2.05 2.23 2.46 2.64 2.70 2.29 1.92 1.86 1.56 1.45 1.23 1.28 1.16 1.08 1.06 0.84 0.71 0.69 0.63 0.62 0.66 0.71 0.80 0.88 0.96 1.06
1.71 1.63 1.56 1.55 1.56 1.62 1.68 1.75 1.70 1.72 1.75 1.87 1.87 2.01 2.11 2.24 2.22 2.20 2.29 2.39 2.58 2.77 2.40 2.17 2.23 2.08 1.83 1.58 1.42 1.27 1.08 1.03 0.90 0.79 0.67 0.66 0.66 0.68 0.72 0.77 0.79 0.83 0.89
1.42 1.32 1.35 1.36 1.35 1.33 1.37 1.35 1.32 1.41 1.55 1.71 1.83 1.94 1.84 1.89 1.96 2.02 2.15 2.31 2.51 2.74 2.61 2.52 2.61 2.56 2.29 1.94 1.76 1.56 1.23 1.05 0.96 0.92 0.77 0.66 0.68 0.70 0.71 0.76 0.80 0.81 0.82
1.10 1.08 1.15 1.18 1.17 1.15 1.13 1.13 1.20 1.28 1.41 1.53 1.64 1.67 1.58 1.63 1.69 1.83 1.90 2.07 2.29 2.53 2.62 2.60 2.71 2.71 2.49 2.25 2.13 1.77 1.51 1.44 1.15 1.09 0.98 0.81 0.70 0.70 0.74 0.75 0.79 0.84 0.84
1.03 1.05 1.09 1.12 1.12 1.15 1.22 1.33 1.40 1.42 1.46 1.44 1.40 1.37 1.32 1.41 1.51 1.68 1.76 1.85 1.99 2.21 2.35 2.47 2.66 2.70 2.58 2.48 2.41 2.06 1.84 1.73 1.51 1.25 1.19 0.97 0.86 0.79 0.77 0.77 0.79 0.85 0.92
1.07 1.10 1.17 1.21 1.25 1.22 1.16 1.32 1.45 1.41 1.44 1.41 1.33 1.18 1.07 1.13 1.21 1.36 1.33 1.56 1.77 1.97 2.07 2.24 2.46 2.68 2.53 2.49 2.35 2.20 2.02 1.96 1.84 1.57 1.51 1.23 1.05 0.90 0.75 0.72 0.74 0.82 0.96
1.12 1.11 1.10 1.16 1.13 0.92 0.99 1.15 1.27 1.31 1.40 1.41 1.29 1.15 1.02 0.99 1.03 1.11 1.14 1.22 1.41 1.62 1.81 2.09 2.29 2.46 2.34 2.26 2.35 2.36 2.29 2.09 1.98 1.84 1.93 1.80 1.54 1.38 1.11 0.85 0.81 0.84 0.97
1.11 1.15 1.14 1.12 1.09 1.04 1.08 1.07 1.06 1.16 1.27 1.27 1.29 1.28 1.06 0.87 0.98 0.99 1.05 1.04 1.11 1.23 1.41 1.72 1.91 2.01 2.15 2.15 2.38 2.48 2.58 2.47 2.30 2.19 2.36 2.36 2.19 2.00 1.40 1.18 1.12 0.94 0.91
1.16 1.19 1.18 1.14 1.21 1.20 1.16 1.02 1.02 1.02 1.15 1.21 1.20 1.16 1.16 1.11 1.03 1.01 1.05 1.08 0.99 0.99 1.08 1.12 1.30 1.60 2.10 2.38 2.40 2.46 2.68 2.66 2.47 2.37 2.47 2.58 2.38 2.28 1.82 1.39 1.15 0.89 0.81
1.18 1.18 1.17 1.11 1.13 1.22 1.17 1.03 0.98 0.97 1.11 1.16 1.17 1.14 1.10 1.11 1.09 0.97 1.02 1.06 1.01 0.95 0.95 1.05 1.16 1.38 1.63 1.95 2.15 2.23 2.34 2.48 2.55 2.51 2.50 2.63 2.54 2.43 2.42 2.11 1.52 1.15 0.88
1.32 1.27 1.22 1.15 1.12 1.15 1.10 0.90 0.86 0.87 0.99 1.07 1.16 1.10 0.98 0.90 0.92 0.87 0.97 1.06 1.00 0.97 1.00 1.02 1.03 1.11 1.26 1.44 1.53 1.53 1.65 1.82 2.01 2.17 2.11 2.32 2.56 2.65 2.85 2.80 2.28 1.68 1.29